Regional Weather Roundup
Issued by NWS

Home | Current Version | Previous Version | Text Only | Print | Product List | Glossary Off
Versions: 1 2 3 4 5 6 7 8 9 10 11 12 13 14 15 16 17 18 19 20 21 22 23 24 25 26 27 28 29 30 31 32 33 34 35 36 37 38 39 40 41 42 43 44 45 46 47 48 49 50

000
ASUS43 KOAX 191902
RWRNE

WEATHER ROUNDUP FOR NEBRASKA
NATIONAL WEATHER SERVICE OMAHA NE
200 PM CDT THU OCT 19 2017

NOTES: SATELLITE DATA IS BEING USED TO AUGMENT CLOUD COVER ABOVE
       12000 FEET.
       "FAIR" INDICATES FEW OR NO CLOUDS BELOW 12,000 FEET WITH NO
       SIGNIFICANT WEATHER AND/OR OBSTRUCTIONS TO VISIBILITY.


NEZ001>004-019>022-054>056-192000-
NEBRASKA PANHANDLE

CITY           SKY/WX    TMP DP  RH WIND       PRES   REMARKS
SCOTTSBLUFF    FAIR      76  26  15 E5        29.94F
ALLIANCE       FAIR      78  24  13 S14       29.94F
CHADRON        FAIR      82  15   8 S5        29.87F
GORDON         FAIR      79  26  14 SW10      29.91F
KIMBALL        FAIR      77  24  14 S13       30.00F
SIDNEY         FAIR      79  29  16 S16       29.98F
$$

NEZ057>060-069>072-079>082-192000-
SOUTHWEST NEBRASKA

CITY           SKY/WX    TMP DP  RH WIND       PRES   REMARKS
NORTH PLATTE   FAIR      75  46  35 S12       29.98F
IMPERIAL       FAIR      82  40  22 S16G28    29.97F
LEXINGTON      FAIR      77  45  32 S14       29.99F
MCCOOK         FAIR      79  48  33 S13       29.98F
OGALLALA       FAIR      80  42  25 S13       29.96F
$$

NEZ005>010-023>029-035>040-094-192000-
NORTH CENTRAL NEBRASKA

CITY           SKY/WX    TMP DP  RH WIND       PRES   REMARKS
VALENTINE      FAIR      84  37  18 S25G32    29.88F
AINSWORTH      FAIR      76  43  30 S15G21    29.92F
BROKEN BOW     FAIR      75  45  34 S14       29.98F
O`NEILL        FAIR      74  44  34 S15       29.96F
ORD            FAIR      74  45  35 S8G18     29.97F
THEDFORD       FAIR      78  43  29 S17       29.96F
$$

NEZ041-046>049-061>064-073>077-083>087-192000-
SOUTH CENTRAL NEBRASKA

CITY           SKY/WX    TMP DP  RH WIND       PRES   REMARKS
GRAND ISLAND   FAIR      77  48  35 S13       30.00F
AURORA         FAIR      77  47  34 S8        30.00F
HASTINGS       FAIR      77  46  33 S10       30.01F
HEBRON         FAIR      78  52  40 S10       30.02F
HOLDREGE       FAIR      76  47  35 S14       30.00F
KEARNEY        FAIR      79  47  32 SE16      30.00F
YORK           FAIR      77  48  36 S9        30.01F
$$

NEZ011>018-030>034-042>045-192000-
NORTHEAST NEBRASKA

CITY           SKY/WX    TMP DP  RH WIND       PRES   REMARKS
NORFOLK        FAIR      75  51  43 S14       29.97F
ALBION         FAIR      75  48  38 S14       29.99F
BLAIR          FAIR      75  53  45 SE9       30.03F
COLUMBUS       FAIR      78  51  38 S10       30.00F
FREMONT        FAIR      73  52  47 SE12      30.02F
TEKAMAH        FAIR      75  50  41 SE9       30.01F
WAYNE          FAIR      73  49  43 S13G18    29.99F
$$

NEZ050>053-065>068-078-088>093-192000-
SOUTHEAST NEBRASKA

CITY           SKY/WX    TMP DP  RH WIND       PRES   REMARKS
LINCOLN        FAIR      77  53  43 SE9       30.02F
OMAHA EPPLEY   FAIR      75  53  46 S12       30.03F
BEATRICE       FAIR      75  56  50 S8        30.03F
FALLS CITY     FAIR      77  52  41 S10       30.04F
NEBRASKA CITY  FAIR      75  55  50 S8        30.04F
PLATTSMOUTH    FAIR      75  53  45 SE13      30.04F
$$

NEZ044-045-051>053-067-192000-
OMAHA AREA

CITY           SKY/WX    TMP DP  RH WIND       PRES   REMARKS
OMAHA EPPLEY   FAIR      75  53  46 S12       30.03F
BLAIR          FAIR      75  53  45 SE9       30.03F
FREMONT        FAIR      73  52  47 SE12      30.02F
MILLARD        FAIR      75  56  51 SE9       30.02F
OFFUTT AFB     FAIR      75  54  47 SE8       30.02F
PLATTSMOUTH    FAIR      75  53  45 SE13      30.04F
WAHOO          FAIR      76  51  42 SE12      30.02F
$$




USA.gov is the U.S. government's official web portal to all federal, state and local government web resources and services.